Time,TemperatureF,DewpointF,PressureIn,WindDirection,WindDirectionDegrees,WindSpeedMPH,WindSpeedGustMPH,Humidity,HourlyPrecipIn,Conditions,Clouds,dailyrainin,SolarRadiationWatts/m^2,SoftwareType,DateUTC
2013-07-25 00:00:00,61.3,51.4,30.01,SSW,194,0.0,3.0,70,0.00,,,0.04,0.0,meteohub,2013-07-25 04:00:00,
2013-07-25 00:01:00,61.3,51.8,30.01,SSW,194,0.0,3.0,71,0.00,,,0.04,0.0,meteohub,2013-07-25 04:01:00,
2013-07-25 00:02:00,61.3,51.8,30.02,SSW,194,0.0,3.0,71,0.00,,,0.04,0.0,meteohub,2013-07-25 04:02:00,
2013-07-25 00:03:00,61.2,51.6,30.02,SSW,194,0.0,3.0,71,0.00,,,0.04,0.0,meteohub,2013-07-25 04:03:00,
2013-07-25 00:04:00,61.2,51.3,30.02,SSE,153,0.0,3.0,70,0.00,,,0.04,0.0,meteohub,2013-07-25 04:04:00,
2013-07-25 00:09:00,61.0,52.3,30.02,SSE,153,0.0,3.0,73,0.00,,,0.00,0.0,meteohub,2013-07-25 04:09:00,
2013-07-25 00:14:00,61.0,53.1,30.02,SSE,153,0.0,2.0,75,0.00,,,0.00,0.0,meteohub,2013-07-25 04:14:00,
2013-07-25 00:20:00,60.6,52.3,30.02,SSE,153,0.0,2.0,74,0.00,,,0.00,0.0,meteohub,2013-07-25 04:20:00,
2013-07-25 00:25:00,60.6,52.3,30.02,SSW,196,0.0,2.0,74,0.00,,,0.00,0.0,meteohub,2013-07-25 04:25:00,
2013-07-25 00:30:00,60.4,52.2,30.01,North,355,0.0,2.0,74,0.00,,,0.00,0.0,meteohub,2013-07-25 04:30:00,
2013-07-25 00:35:00,60.4,52.2,30.02,North,355,0.0,3.0,74,0.00,,,0.00,0.0,meteohub,2013-07-25 04:35:00,
2013-07-25 00:40:00,60.4,51.8,30.02,East,82,0.0,3.0,73,0.00,,,0.00,0.0,meteohub,2013-07-25 04:40:00,
2013-07-25 00:46:00,60.3,52.3,30.02,East,82,0.0,3.0,75,0.00,,,0.00,0.0,meteohub,2013-07-25 04:46:00,
2013-07-25 00:51:00,60.1,52.2,30.02,East,82,0.0,1.0,75,0.00,,,0.00,0.0,meteohub,2013-07-25 04:51:00,
2013-07-25 00:56:00,60.1,52.2,30.02,East,82,0.0,1.0,75,0.00,,,0.00,0.0,meteohub,2013-07-25 04:56:00,
2013-07-25 01:01:00,60.1,52.5,30.02,ESE,112,0.0,1.0,76,0.00,,,0.00,0.0,meteohub,2013-07-25 05:01:00,
2013-07-25 01:06:00,59.9,52.3,30.02,ESE,107,0.0,3.0,76,0.00,,,0.00,0.0,meteohub,2013-07-25 05:06:00,
2013-07-25 01:12:00,59.7,52.2,30.02,SE,129,0.0,3.0,76,0.00,,,0.00,0.0,meteohub,2013-07-25 05:12:00,
2013-07-25 01:17:00,59.7,52.5,30.02,ESE,111,0.0,3.0,77,0.00,,,0.00,0.0,meteohub,2013-07-25 05:17:00,
2013-07-25 01:22:00,59.7,52.5,30.03,ESE,122,0.0,3.0,77,0.00,,,0.00,0.0,meteohub,2013-07-25 05:22:00,
2013-07-25 01:27:00,59.7,52.5,30.03,ESE,122,1.0,3.0,77,0.00,,,0.00,0.0,meteohub,2013-07-25 05:27:00,
2013-07-25 01:32:00,59.5,52.3,30.03,ESE,122,0.0,3.0,77,0.00,,,0.00,0.0,meteohub,2013-07-25 05:32:00,
2013-07-25 01:37:00,59.5,52.0,30.03,West,265,2.0,2.0,76,0.00,,,0.00,0.0,meteohub,2013-07-25 05:37:00,
2013-07-25 01:43:00,59.4,51.8,30.02,SE,134,0.0,3.0,76,0.00,,,0.00,0.0,meteohub,2013-07-25 05:43:00,
2013-07-25 01:48:00,59.4,51.8,30.03,East,87,0.0,3.0,76,0.00,,,0.00,0.0,meteohub,2013-07-25 05:48:00,
2013-07-25 01:53:00,59.4,51.8,30.03,NE,46,2.0,3.0,76,0.00,,,0.00,0.0,meteohub,2013-07-25 05:53:00,
2013-07-25 01:58:00,59.5,52.0,30.02,NNW,342,0.0,5.0,76,0.00,,,0.00,0.0,meteohub,2013-07-25 05:58:00,
2013-07-25 02:03:00,59.5,52.3,30.03,East,80,0.0,6.0,77,0.00,,,0.00,0.0,meteohub,2013-07-25 06:03:00,
2013-07-25 02:08:00,59.4,51.8,30.02,East,80,0.0,6.0,76,0.00,,,0.00,0.0,meteohub,2013-07-25 06:08:00,
2013-07-25 02:14:00,59.4,52.2,30.02,SE,125,0.0,6.0,77,0.00,,,0.00,0.0,meteohub,2013-07-25 06:14:00,
2013-07-25 02:19:00,59.4,51.4,30.02,East,87,0.0,5.0,75,0.00,,,0.00,0.0,meteohub,2013-07-25 06:19:00,
2013-07-25 02:24:00,59.4,52.2,30.02,SSE,154,0.0,3.0,77,0.00,,,0.00,0.0,meteohub,2013-07-25 06:24:00,
2013-07-25 02:29:00,59.2,52.0,30.03,ESE,109,0.0,3.0,77,0.00,,,0.00,0.0,meteohub,2013-07-25 06:29:00,
2013-07-25 02:34:00,59.2,51.3,30.03,NNE,13,0.0,3.0,75,0.00,,,0.00,0.0,meteohub,2013-07-25 06:34:00,
2013-07-25 02:40:00,59.2,52.0,30.03,NNE,13,0.0,3.0,77,0.00,,,0.00,0.0,meteohub,2013-07-25 06:40:00,
2013-07-25 02:45:00,59.2,52.0,30.02,East,88,0.0,3.0,77,0.00,,,0.00,0.0,meteohub,2013-07-25 06:45:00,
2013-07-25 02:50:00,59.2,49.8,30.02,ESE,104,4.0,5.0,71,0.00,,,0.00,0.0,meteohub,2013-07-25 06:50:00,
2013-07-25 02:55:00,59.2,49.5,30.02,East,92,0.0,5.0,70,0.00,,,0.00,0.0,meteohub,2013-07-25 06:55:00,
2013-07-25 03:00:00,59.4,50.4,30.02,NE,49,0.0,5.0,72,0.00,,,0.00,0.0,meteohub,2013-07-25 07:00:00,
2013-07-25 03:06:00,59.4,50.0,30.02,SSW,192,0.0,4.0,71,0.00,,,0.00,0.0,meteohub,2013-07-25 07:06:00,
2013-07-25 03:11:00,59.4,50.4,30.02,SSE,150,0.0,3.0,72,0.00,,,0.00,0.0,meteohub,2013-07-25 07:11:00,
2013-07-25 03:16:00,59.4,50.7,30.02,SSE,153,0.0,2.0,73,0.00,,,0.00,0.0,meteohub,2013-07-25 07:16:00,
2013-07-25 03:21:00,59.4,50.4,30.01,ESE,108,0.0,1.0,72,0.00,,,0.00,0.0,meteohub,2013-07-25 07:21:00,
2013-07-25 03:26:00,59.5,49.8,30.01,SE,126,0.0,3.0,70,0.00,,,0.00,0.0,meteohub,2013-07-25 07:26:00,
2013-07-25 03:32:00,59.5,50.2,30.01,East,80,0.0,9.0,71,0.00,,,0.00,0.0,meteohub,2013-07-25 07:32:00,
2013-07-25 03:37:00,59.5,50.9,30.01,ESE,109,1.0,9.0,73,0.00,,,0.00,0.0,meteohub,2013-07-25 07:37:00,
2013-07-25 03:42:00,59.5,50.5,30.01,East,94,0.0,9.0,72,0.00,,,0.00,0.0,meteohub,2013-07-25 07:42:00,
2013-07-25 03:47:00,59.4,50.0,30.01,NNE,21,0.0,5.0,71,0.00,,,0.00,0.0,meteohub,2013-07-25 07:47:00,
2013-07-25 03:52:00,59.2,49.8,30.01,ESE,116,0.0,5.0,71,0.00,,,0.00,0.0,meteohub,2013-07-25 07:52:00,
2013-07-25 03:57:00,59.2,50.2,30.02,SE,143,2.0,5.0,72,0.00,,,0.00,0.0,meteohub,2013-07-25 07:57:00,
2013-07-25 04:02:00,58.8,49.8,30.02,SE,133,0.0,5.0,72,0.00,,,0.00,0.0,meteohub,2013-07-25 08:02:00,
2013-07-25 04:08:00,58.8,49.8,30.02,SSW,197,0.0,6.0,72,0.01,,,0.01,0.0,meteohub,2013-07-25 08:08:00,
2013-07-25 04:13:00,58.6,49.6,30.02,SSE,160,0.0,6.0,72,0.01,,,0.01,0.0,meteohub,2013-07-25 08:13:00,
2013-07-25 04:18:00,58.5,50.2,30.02,East,101,0.0,6.0,74,0.01,,,0.01,0.0,meteohub,2013-07-25 08:18:00,
2013-07-25 04:23:00,58.3,49.6,30.03,ESE,104,0.0,3.0,73,0.01,,,0.01,0.0,meteohub,2013-07-25 08:23:00,
2013-07-25 04:28:00,58.3,50.4,30.03,ESE,109,1.0,4.0,75,0.01,,,0.01,0.0,meteohub,2013-07-25 08:28:00,
2013-07-25 04:34:00,58.1,50.5,30.03,SE,127,0.0,4.0,76,0.01,,,0.01,0.0,meteohub,2013-07-25 08:34:00,
2013-07-25 04:39:00,57.9,50.4,30.03,East,89,1.0,3.0,76,0.01,,,0.01,0.0,meteohub,2013-07-25 08:39:00,
2013-07-25 04:44:00,57.7,49.8,30.04,SE,132,0.0,5.0,75,0.01,,,0.01,0.0,meteohub,2013-07-25 08:44:00,
2013-07-25 04:49:00,57.7,50.5,30.04,NE,38,0.0,5.0,77,0.01,,,0.01,0.0,meteohub,2013-07-25 08:49:00,
2013-07-25 04:54:00,57.6,50.7,30.03,ESE,111,2.0,8.0,78,0.01,,,0.01,0.0,meteohub,2013-07-25 08:54:00,
2013-07-25 04:59:00,57.4,50.9,30.03,East,82,0.0,8.0,79,0.01,,,0.01,0.0,meteohub,2013-07-25 08:59:00,
2013-07-25 05:04:00,57.4,50.5,30.03,ESE,123,1.0,8.0,78,0.00,,,0.01,0.0,meteohub,2013-07-25 09:04:00,
2013-07-25 05:09:00,57.4,50.9,30.03,North,5,0.0,6.0,79,0.00,,,0.01,0.0,meteohub,2013-07-25 09:09:00,
2013-07-25 05:14:00,57.4,50.2,30.04,East,98,1.0,7.0,77,0.00,,,0.01,0.0,meteohub,2013-07-25 09:14:00,
2013-07-25 05:20:00,57.4,50.2,30.04,SE,136,1.0,7.0,77,0.00,,,0.01,0.0,meteohub,2013-07-25 09:20:00,
2013-07-25 05:25:00,57.4,50.2,30.04,SE,136,0.0,6.0,77,0.00,,,0.01,0.0,meteohub,2013-07-25 09:25:00,
2013-07-25 05:30:00,57.4,50.2,30.05,SE,136,0.0,6.0,77,0.00,,,0.01,0.0,meteohub,2013-07-25 09:30:00,
2013-07-25 05:36:00,57.2,50.0,30.04,SE,128,0.0,4.0,77,0.00,,,0.01,0.0,meteohub,2013-07-25 09:36:00,
2013-07-25 05:38:00,57.2,50.4,30.05,NNE,19,2.0,4.0,78,0.00,,,0.01,0.0,meteohub,2013-07-25 09:38:00,
2013-07-25 05:43:00,57.0,49.8,30.05,NE,52,0.0,5.0,77,0.00,,,0.01,0.0,meteohub,2013-07-25 09:43:00,
2013-07-25 05:48:00,57.2,49.6,30.05,SE,126,3.0,5.0,76,0.00,,,0.01,0.0,meteohub,2013-07-25 09:48:00,
2013-07-25 05:53:00,57.2,49.3,30.05,East,79,0.0,5.0,75,0.00,,,0.01,5.0,meteohub,2013-07-25 09:53:00,
2013-07-25 05:58:00,57.4,49.8,30.05,East,88,0.0,7.0,76,0.00,,,0.01,7.0,meteohub,2013-07-25 09:58:00,
2013-07-25 06:03:00,57.2,50.0,30.05,ENE,70,0.0,7.0,77,0.00,,,0.01,9.0,meteohub,2013-07-25 10:03:00,
2013-07-25 06:09:00,57.2,50.0,30.05,ESE,115,0.0,6.0,77,0.00,,,0.01,11.0,meteohub,2013-07-25 10:09:00,
2013-07-25 06:14:00,57.2,49.6,30.05,NE,49,1.0,6.0,76,0.00,,,0.01,11.0,meteohub,2013-07-25 10:14:00,
2013-07-25 06:19:00,57.2,49.6,30.05,ESE,103,1.0,8.0,76,0.00,,,0.01,14.0,meteohub,2013-07-25 10:19:00,
2013-07-25 06:24:00,57.2,49.6,30.05,ESE,108,0.0,8.0,76,0.00,,,0.01,16.0,meteohub,2013-07-25 10:24:00,
2013-07-25 06:29:00,57.2,50.4,30.05,ESE,123,1.0,8.0,78,0.00,,,0.01,23.0,meteohub,2013-07-25 10:29:00,
2013-07-25 06:34:00,57.2,50.0,30.04,SE,136,0.0,6.0,77,0.00,,,0.01,28.0,meteohub,2013-07-25 10:34:00,
2013-07-25 06:40:00,57.2,49.6,30.05,ENE,59,2.0,4.0,76,0.00,,,0.01,26.0,meteohub,2013-07-25 10:40:00,
2013-07-25 06:45:00,57.2,48.9,30.05,ENE,67,0.0,4.0,74,0.00,,,0.01,26.0,meteohub,2013-07-25 10:45:00,
2013-07-25 06:50:00,57.4,49.1,30.05,WSW,246,0.0,3.0,74,0.00,,,0.01,30.0,meteohub,2013-07-25 10:50:00,
2013-07-25 06:55:00,57.6,49.6,30.06,SW,226,0.0,3.0,75,0.00,,,0.01,32.0,meteohub,2013-07-25 10:55:00,
2013-07-25 07:00:00,57.6,48.9,30.06,East,89,0.0,5.0,73,0.00,,,0.01,33.0,meteohub,2013-07-25 11:00:00,
2013-07-25 07:05:00,57.7,49.8,30.05,West,274,1.0,5.0,75,0.00,,,0.01,33.0,meteohub,2013-07-25 11:05:00,
2013-07-25 07:11:00,57.7,50.5,30.06,East,96,0.0,5.0,77,0.00,,,0.01,35.0,meteohub,2013-07-25 11:11:00,
2013-07-25 07:16:00,57.9,49.3,30.06,East,90,0.0,3.0,73,0.00,,,0.01,39.0,meteohub,2013-07-25 11:16:00,
2013-07-25 07:21:00,58.1,48.7,30.07,ENE,78,1.0,8.0,71,0.00,,,0.01,40.0,meteohub,2013-07-25 11:21:00,
2013-07-25 07:26:00,58.3,49.3,30.07,ESE,115,0.0,8.0,72,0.00,,,0.01,42.0,meteohub,2013-07-25 11:26:00,
2013-07-25 07:31:00,58.5,49.8,30.07,WNW,288,0.0,5.0,73,0.00,,,0.01,42.0,meteohub,2013-07-25 11:31:00,
2013-07-25 07:36:00,58.5,49.5,30.07,ESE,111,2.0,7.0,72,0.00,,,0.01,46.0,meteohub,2013-07-25 11:36:00,
2013-07-25 07:42:00,58.6,49.6,30.07,SSE,155,1.0,7.0,72,0.00,,,0.01,47.0,meteohub,2013-07-25 11:42:00,
2013-07-25 07:47:00,58.6,49.3,30.07,NW,311,0.0,7.0,71,0.00,,,0.01,30.0,meteohub,2013-07-25 11:47:00,
2013-07-25 07:52:00,58.6,49.3,30.07,NNW,344,1.0,5.0,71,0.00,,,0.01,47.0,meteohub,2013-07-25 11:52:00,
2013-07-25 07:57:00,58.6,48.6,30.07,NNE,13,2.0,4.0,69,0.00,,,0.01,102.0,meteohub,2013-07-25 11:57:00,
2013-07-25 08:02:00,58.8,48.7,30.06,ENE,63,0.0,6.0,69,0.00,,,0.01,98.0,meteohub,2013-07-25 12:02:00,
2013-07-25 08:08:00,59.0,49.6,30.06,NE,46,3.0,6.0,71,0.00,,,0.01,98.0,meteohub,2013-07-25 12:08:00,
2013-07-25 08:13:00,59.2,49.8,30.06,East,97,0.0,7.0,71,0.00,,,0.01,98.0,meteohub,2013-07-25 12:13:00,
2013-07-25 08:18:00,59.2,49.8,30.08,NNE,19,0.0,7.0,71,0.00,,,0.01,111.0,meteohub,2013-07-25 12:18:00,
2013-07-25 08:23:00,59.2,49.1,30.08,NE,40,0.0,9.0,69,0.00,,,0.01,156.0,meteohub,2013-07-25 12:23:00,
2013-07-25 08:29:00,59.4,50.7,30.08,East,91,0.0,9.0,73,0.00,,,0.01,132.0,meteohub,2013-07-25 12:29:00,
2013-07-25 08:34:00,59.4,50.7,30.08,North,9,0.0,9.0,73,0.00,,,0.01,146.0,meteohub,2013-07-25 12:34:00,
2013-07-25 08:39:00,59.4,51.1,30.09,East,90,0.0,8.0,74,0.00,,,0.01,155.0,meteohub,2013-07-25 12:39:00,
2013-07-25 08:44:00,59.5,50.2,30.09,NE,36,2.0,8.0,71,0.00,,,0.01,151.0,meteohub,2013-07-25 12:44:00,
2013-07-25 08:49:00,60.1,51.4,30.09,NE,41,0.0,7.0,73,0.00,,,0.01,322.0,meteohub,2013-07-25 12:49:00,
2013-07-25 08:54:00,60.4,50.5,30.09,WSW,244,0.0,7.0,70,0.00,,,0.01,244.0,meteohub,2013-07-25 12:54:00,
2013-07-25 08:59:00,60.8,50.2,30.09,North,0,0.0,7.0,68,0.00,,,0.01,408.0,meteohub,2013-07-25 12:59:00,
2013-07-25 09:04:00,61.2,50.9,30.09,ENE,78,0.0,7.0,69,0.00,,,0.01,311.0,meteohub,2013-07-25 13:04:00,
2013-07-25 09:10:00,61.3,51.1,30.09,SSW,196,0.0,8.0,69,0.00,,,0.01,355.0,meteohub,2013-07-25 13:10:00,
2013-07-25 09:15:00,61.5,52.0,30.09,East,96,2.0,8.0,71,0.00,,,0.01,294.0,meteohub,2013-07-25 13:15:00,
2013-07-25 09:20:00,61.5,51.6,30.09,NE,49,0.0,8.0,70,0.00,,,0.01,283.0,meteohub,2013-07-25 13:20:00,
2013-07-25 09:25:00,61.3,51.1,30.09,East,96,1.0,7.0,69,0.00,,,0.01,265.0,meteohub,2013-07-25 13:25:00,
2013-07-25 09:30:00,61.3,51.1,30.09,NE,45,0.0,7.0,69,0.00,,,0.01,290.0,meteohub,2013-07-25 13:30:00,
2013-07-25 09:36:00,61.3,51.8,30.10,East,86,1.0,7.0,71,0.00,,,0.01,265.0,meteohub,2013-07-25 13:36:00,
2013-07-25 09:41:00,61.3,50.7,30.10,NNW,332,1.0,4.0,68,0.00,,,0.01,244.0,meteohub,2013-07-25 13:41:00,
2013-07-25 09:46:00,61.2,52.0,30.10,SE,138,1.0,6.0,72,0.00,,,0.01,207.0,meteohub,2013-07-25 13:46:00,
2013-07-25 09:51:00,61.2,51.3,30.10,East,84,1.0,6.0,70,0.00,,,0.01,243.0,meteohub,2013-07-25 13:51:00,
2013-07-25 09:57:00,61.2,52.0,30.09,ENE,69,1.0,6.0,72,0.00,,,0.01,315.0,meteohub,2013-07-25 13:57:00,
2013-07-25 10:02:00,61.2,51.6,30.09,NE,55,0.0,6.0,71,0.00,,,0.01,243.0,meteohub,2013-07-25 14:02:00,
2013-07-25 10:07:00,61.2,51.3,30.09,ESE,109,2.0,8.0,70,0.00,,,0.01,260.0,meteohub,2013-07-25 14:07:00,
2013-07-25 10:12:00,61.3,52.2,30.09,NNE,28,2.0,8.0,72,0.00,,,0.01,237.0,meteohub,2013-07-25 14:12:00,
2013-07-25 10:17:00,61.2,50.9,30.09,SE,127,2.0,8.0,69,0.00,,,0.01,262.0,meteohub,2013-07-25 14:17:00,
2013-07-25 10:23:00,61.3,51.8,30.10,NW,307,0.0,8.0,71,0.00,,,0.01,394.0,meteohub,2013-07-25 14:23:00,
2013-07-25 10:28:00,61.5,52.0,30.10,SE,144,0.0,8.0,71,0.00,,,0.01,413.0,meteohub,2013-07-25 14:28:00,
2013-07-25 10:33:00,62.1,52.9,30.10,WNW,292,0.0,8.0,72,0.00,,,0.01,369.0,meteohub,2013-07-25 14:33:00,
2013-07-25 10:38:00,62.6,53.1,30.09,NW,324,0.0,5.0,71,0.00,,,0.01,459.0,meteohub,2013-07-25 14:38:00,
2013-07-25 10:43:00,63.1,52.9,30.09,NE,51,2.0,5.0,69,0.00,,,0.01,294.0,meteohub,2013-07-25 14:43:00,
2013-07-25 10:49:00,63.3,51.8,30.09,NE,46,1.0,6.0,66,0.00,,,0.01,274.0,meteohub,2013-07-25 14:49:00,
2013-07-25 10:54:00,63.3,52.5,30.09,ENE,74,0.0,8.0,68,0.00,,,0.01,494.0,meteohub,2013-07-25 14:54:00,
2013-07-25 10:59:00,63.3,53.4,30.09,North,9,0.0,8.0,70,0.00,,,0.01,366.0,meteohub,2013-07-25 14:59:00,
2013-07-25 11:04:00,63.5,53.1,30.09,East,88,0.0,8.0,69,0.00,,,0.01,380.0,meteohub,2013-07-25 15:04:00,
2013-07-25 11:09:00,63.7,53.2,30.09,SE,142,0.0,6.0,69,0.00,,,0.01,455.0,meteohub,2013-07-25 15:09:00,
2013-07-25 11:15:00,63.9,52.7,30.09,SE,127,0.0,8.0,67,0.00,,,0.01,443.0,meteohub,2013-07-25 15:15:00,
2013-07-25 11:20:00,64.2,53.1,30.09,ESE,107,1.0,8.0,67,0.00,,,0.01,786.0,meteohub,2013-07-25 15:20:00,
2013-07-25 11:25:00,64.8,53.6,30.09,East,92,2.0,6.0,67,0.00,,,0.01,504.0,meteohub,2013-07-25 15:25:00,
2013-07-25 11:30:00,64.9,54.5,30.09,East,99,0.0,6.0,69,0.00,,,0.01,348.0,meteohub,2013-07-25 15:30:00,
2013-07-25 11:35:00,64.9,52.9,30.09,NE,36,1.0,5.0,65,0.00,,,0.01,334.0,meteohub,2013-07-25 15:35:00,
2013-07-25 11:40:00,64.8,54.3,30.09,NNW,348,0.0,7.0,69,0.00,,,0.01,436.0,meteohub,2013-07-25 15:40:00,
2013-07-25 11:45:00,64.8,54.0,30.09,East,94,1.0,7.0,68,0.00,,,0.01,617.0,meteohub,2013-07-25 15:45:00,
2013-07-25 11:51:00,64.9,52.5,30.09,SSE,151,2.0,7.0,64,0.00,,,0.01,545.0,meteohub,2013-07-25 15:51:00,
2013-07-25 11:56:00,65.1,53.1,30.09,South,169,0.0,7.0,65,0.00,,,0.01,613.0,meteohub,2013-07-25 15:56:00,
2013-07-25 12:02:00,65.7,53.6,30.09,ENE,75,1.0,7.0,65,0.00,,,0.01,455.0,meteohub,2013-07-25 16:02:00,
2013-07-25 12:07:00,65.8,53.2,30.09,SE,128,1.0,7.0,64,0.00,,,0.01,584.0,meteohub,2013-07-25 16:07:00,
2013-07-25 12:12:00,65.8,53.2,30.09,ENE,70,1.0,6.0,64,0.00,,,0.01,427.0,meteohub,2013-07-25 16:12:00,
2013-07-25 12:17:00,66.0,53.4,30.09,SSE,165,2.0,8.0,64,0.00,,,0.01,652.0,meteohub,2013-07-25 16:17:00,
2013-07-25 12:22:00,66.2,54.5,30.09,NE,50,0.0,8.0,66,0.00,,,0.01,603.0,meteohub,2013-07-25 16:22:00,
2013-07-25 12:27:00,66.6,56.1,30.09,NNE,15,0.0,6.0,69,0.00,,,0.01,619.0,meteohub,2013-07-25 16:27:00,
2013-07-25 12:32:00,66.9,54.0,30.09,ENE,61,1.0,6.0,63,0.00,,,0.01,838.0,meteohub,2013-07-25 16:32:00,
2013-07-25 12:38:00,67.3,55.0,30.09,NNW,337,1.0,6.0,65,0.00,,,0.01,592.0,meteohub,2013-07-25 16:38:00,
2013-07-25 12:42:00,67.5,54.5,30.09,ENE,69,2.0,6.0,63,0.00,,,0.01,664.0,meteohub,2013-07-25 16:42:00,
2013-07-25 12:47:00,67.6,54.7,30.09,SSW,213,0.0,9.0,63,0.00,,,0.01,610.0,meteohub,2013-07-25 16:47:00,
2013-07-25 12:52:00,67.6,54.7,30.09,NW,322,2.0,9.0,63,0.00,,,0.01,752.0,meteohub,2013-07-25 16:52:00,
2013-07-25 12:58:00,67.8,55.2,30.09,South,173,1.0,4.0,64,0.00,,,0.01,629.0,meteohub,2013-07-25 16:58:00,
2013-07-25 13:03:00,67.8,54.0,30.09,ENE,61,0.0,5.0,61,0.00,,,0.01,635.0,meteohub,2013-07-25 17:03:00,
2013-07-25 13:08:00,68.2,55.0,30.09,SE,144,1.0,7.0,63,0.00,,,0.01,830.0,meteohub,2013-07-25 17:08:00,
2013-07-25 13:13:00,68.5,55.0,30.09,SSE,153,0.0,7.0,62,0.00,,,0.01,592.0,meteohub,2013-07-25 17:13:00,
2013-07-25 13:18:00,69.1,54.7,30.09,ESE,105,0.0,5.0,60,0.00,,,0.01,798.0,meteohub,2013-07-25 17:18:00,
2013-07-25 13:23:00,69.3,54.9,30.09,West,263,1.0,9.0,60,0.00,,,0.01,682.0,meteohub,2013-07-25 17:23:00,
2013-07-25 13:28:00,69.4,55.9,30.09,SE,138,0.0,9.0,62,0.00,,,0.01,844.0,meteohub,2013-07-25 17:28:00,
2013-07-25 13:33:00,69.4,55.4,30.09,WSW,246,0.0,9.0,61,0.00,,,0.01,791.0,meteohub,2013-07-25 17:33:00,
2013-07-25 13:38:00,69.6,57.4,30.09,SW,222,1.0,9.0,65,0.00,,,0.01,527.0,meteohub,2013-07-25 17:38:00,
2013-07-25 13:43:00,69.4,55.4,30.09,ESE,103,0.0,6.0,61,0.00,,,0.01,545.0,meteohub,2013-07-25 17:43:00,
2013-07-25 13:48:00,69.4,55.9,30.09,West,264,1.0,4.0,62,0.00,,,0.01,946.0,meteohub,2013-07-25 17:48:00,
2013-07-25 13:54:00,69.8,55.2,30.09,ENE,76,1.0,4.0,60,0.00,,,0.01,744.0,meteohub,2013-07-25 17:54:00,
2013-07-25 13:59:00,70.2,55.6,30.08,ESE,121,3.0,5.0,60,0.00,,,0.01,657.0,meteohub,2013-07-25 17:59:00,
2013-07-25 14:04:00,70.0,55.4,30.08,WNW,292,0.0,5.0,60,0.00,,,0.01,552.0,meteohub,2013-07-25 18:04:00,
2013-07-25 14:09:00,69.8,56.7,30.08,NW,315,0.0,4.0,63,0.00,,,0.01,438.0,meteohub,2013-07-25 18:09:00,
2013-07-25 14:15:00,69.6,55.9,30.08,WSW,255,0.0,5.0,62,0.00,,,0.01,385.0,meteohub,2013-07-25 18:15:00,
2013-07-25 14:20:00,69.6,55.9,30.08,NNW,327,1.0,5.0,62,0.00,,,0.01,445.0,meteohub,2013-07-25 18:20:00,
2013-07-25 14:25:00,70.0,56.3,30.08,ESE,102,0.0,2.0,62,0.01,,,0.02,531.0,meteohub,2013-07-25 18:25:00,
2013-07-25 14:30:00,70.0,56.8,30.08,ENE,72,1.0,2.0,63,0.01,,,0.02,496.0,meteohub,2013-07-25 18:30:00,
2013-07-25 14:35:00,70.2,57.0,30.08,SSW,213,1.0,5.0,63,0.01,,,0.02,624.0,meteohub,2013-07-25 18:35:00,
2013-07-25 14:40:00,70.3,57.6,30.08,South,182,1.0,5.0,64,0.01,,,0.02,988.0,meteohub,2013-07-25 18:40:00,
2013-07-25 14:46:00,70.3,59.4,30.08,WSW,239,0.0,2.0,68,0.01,,,0.02,355.0,meteohub,2013-07-25 18:46:00,
2013-07-25 14:51:00,70.5,57.7,30.08,SSE,167,0.0,4.0,64,0.01,,,0.02,355.0,meteohub,2013-07-25 18:51:00,
2013-07-25 14:56:00,70.3,57.6,30.08,SSE,151,1.0,4.0,64,0.01,,,0.02,357.0,meteohub,2013-07-25 18:56:00,
2013-07-25 15:01:00,70.3,56.7,30.08,NNW,346,1.0,4.0,62,0.01,,,0.02,420.0,meteohub,2013-07-25 19:01:00,
2013-07-25 15:06:00,70.2,56.1,30.08,West,263,0.0,4.0,61,0.01,,,0.02,345.0,meteohub,2013-07-25 19:06:00,
2013-07-25 15:12:00,70.0,56.3,30.08,WSW,253,0.0,4.0,62,0.01,,,0.02,339.0,meteohub,2013-07-25 19:12:00,
2013-07-25 15:17:00,69.8,57.0,30.08,SSW,201,0.0,4.0,64,0.01,,,0.02,260.0,meteohub,2013-07-25 19:17:00,
2013-07-25 15:22:00,70.0,57.2,30.08,WNW,282,1.0,3.0,64,0.00,,,0.02,357.0,meteohub,2013-07-25 19:22:00,
2013-07-25 15:27:00,70.0,58.1,30.08,WNW,302,1.0,4.0,66,0.00,,,0.02,359.0,meteohub,2013-07-25 19:27:00,
2013-07-25 15:32:00,69.8,57.6,30.08,NW,309,0.0,4.0,65,0.00,,,0.02,520.0,meteohub,2013-07-25 19:32:00,
2013-07-25 15:37:00,70.0,57.2,30.08,NNW,346,1.0,4.0,64,0.00,,,0.02,367.0,meteohub,2013-07-25 19:37:00,
2013-07-25 15:42:00,70.2,57.9,30.08,NW,317,0.0,3.0,65,0.00,,,0.02,311.0,meteohub,2013-07-25 19:42:00,
2013-07-25 15:47:00,70.2,57.9,30.08,WSW,241,1.0,4.0,65,0.00,,,0.02,318.0,meteohub,2013-07-25 19:47:00,
2013-07-25 15:52:00,70.2,57.9,30.08,WSW,246,0.0,4.0,65,0.00,,,0.02,294.0,meteohub,2013-07-25 19:52:00,
2013-07-25 15:57:00,70.3,58.1,30.08,ESE,105,3.0,4.0,65,0.00,,,0.02,422.0,meteohub,2013-07-25 19:57:00,
2013-07-25 16:03:00,70.5,58.1,30.07,NE,55,0.0,5.0,65,0.00,,,0.02,424.0,meteohub,2013-07-25 20:03:00,
2013-07-25 16:08:00,70.9,59.0,30.07,ESE,117,1.0,5.0,66,0.00,,,0.02,376.0,meteohub,2013-07-25 20:08:00,
2013-07-25 16:13:00,70.7,58.3,30.07,WNW,284,1.0,5.0,65,0.00,,,0.02,274.0,meteohub,2013-07-25 20:13:00,
2013-07-25 16:19:00,70.9,59.0,30.07,SSW,200,0.0,3.0,66,0.00,,,0.02,264.0,meteohub,2013-07-25 20:19:00,
2013-07-25 16:24:00,70.9,59.0,30.07,West,279,2.0,3.0,66,0.00,,,0.02,216.0,meteohub,2013-07-25 20:24:00,
2013-07-25 16:29:00,70.9,58.5,30.07,West,279,2.0,3.0,65,0.00,,,0.02,216.0,meteohub,2013-07-25 20:29:00,
2013-07-25 16:34:00,70.7,58.3,30.07,West,279,1.0,3.0,65,0.00,,,0.02,232.0,meteohub,2013-07-25 20:34:00,
2013-07-25 16:39:00,70.3,58.1,30.07,West,279,0.0,3.0,65,0.00,,,0.02,202.0,meteohub,2013-07-25 20:39:00,
2013-07-25 16:45:00,70.3,58.5,30.07,West,279,0.0,1.0,66,0.00,,,0.02,200.0,meteohub,2013-07-25 20:45:00,
2013-07-25 16:50:00,70.2,58.6,30.07,West,277,1.0,1.0,67,0.00,,,0.02,223.0,meteohub,2013-07-25 20:50:00,
2013-07-25 16:55:00,70.2,58.6,30.07,West,276,0.0,2.0,67,0.00,,,0.02,185.0,meteohub,2013-07-25 20:55:00,
2013-07-25 17:00:00,70.2,59.2,30.07,West,276,0.0,2.0,68,0.00,,,0.02,211.0,meteohub,2013-07-25 21:00:00,
2013-07-25 17:06:00,70.3,61.7,30.07,West,276,0.0,2.0,74,0.00,,,0.02,220.0,meteohub,2013-07-25 21:06:00,
2013-07-25 17:11:00,70.3,58.8,30.07,NW,307,0.0,3.0,67,0.00,,,0.02,209.0,meteohub,2013-07-25 21:11:00,
2013-07-25 17:16:00,70.5,59.0,30.07,East,90,0.0,3.0,67,0.00,,,0.02,202.0,meteohub,2013-07-25 21:16:00,
2013-07-25 17:21:00,70.5,59.9,30.07,SSE,157,0.0,3.0,69,0.00,,,0.02,192.0,meteohub,2013-07-25 21:21:00,
2013-07-25 17:26:00,70.5,59.0,30.06,SSE,157,0.0,2.0,67,0.00,,,0.02,209.0,meteohub,2013-07-25 21:26:00,
2013-07-25 17:32:00,70.9,60.3,30.07,SSE,157,0.0,2.0,69,0.00,,,0.02,211.0,meteohub,2013-07-25 21:32:00,
2013-07-25 17:37:00,70.9,60.3,30.07,SSE,157,0.0,1.0,69,0.00,,,0.02,167.0,meteohub,2013-07-25 21:37:00,
2013-07-25 17:42:00,70.7,58.8,30.07,South,172,0.0,1.0,66,0.00,,,0.02,160.0,meteohub,2013-07-25 21:42:00,
2013-07-25 17:47:00,70.7,58.3,30.07,ESE,115,0.0,2.0,65,0.00,,,0.02,163.0,meteohub,2013-07-25 21:47:00,
2013-07-25 17:52:00,70.7,59.2,30.07,ESE,117,1.0,2.0,67,0.00,,,0.02,132.0,meteohub,2013-07-25 21:52:00,
2013-07-25 17:58:00,70.7,59.5,30.07,SSW,211,0.0,2.0,68,0.00,,,0.02,91.0,meteohub,2013-07-25 21:58:00,
2013-07-25 18:03:00,70.5,61.0,30.07,West,273,0.0,2.0,72,0.00,,,0.02,76.0,meteohub,2013-07-25 22:03:00,
2013-07-25 18:08:00,70.3,60.1,30.07,NNW,339,0.0,2.0,70,0.00,,,0.02,62.0,meteohub,2013-07-25 22:08:00,
2013-07-25 18:13:00,70.2,58.6,30.07,ESE,116,1.0,2.0,67,0.00,,,0.02,54.0,meteohub,2013-07-25 22:13:00,
2013-07-25 18:18:00,70.2,59.9,30.07,NW,319,0.0,1.0,70,0.00,,,0.02,46.0,meteohub,2013-07-25 22:18:00,
2013-07-25 18:23:00,70.0,60.1,30.07,NE,50,0.0,2.0,71,0.00,,,0.02,44.0,meteohub,2013-07-25 22:23:00,
2013-07-25 18:29:00,69.6,59.7,30.07,North,355,0.0,2.0,71,0.00,,,0.02,44.0,meteohub,2013-07-25 22:29:00,
2013-07-25 18:34:00,69.4,59.2,30.07,NNW,340,0.0,2.0,70,0.00,,,0.02,51.0,meteohub,2013-07-25 22:34:00,
2013-07-25 18:39:00,69.3,59.9,30.07,NNW,340,0.0,2.0,72,0.00,,,0.02,35.0,meteohub,2013-07-25 22:39:00,
2013-07-25 18:45:00,69.1,59.7,30.07,East,86,0.0,2.0,72,0.00,,,0.02,37.0,meteohub,2013-07-25 22:45:00,
2013-07-25 18:50:00,68.7,59.4,30.07,East,86,0.0,3.0,72,0.00,,,0.02,39.0,meteohub,2013-07-25 22:50:00,
2013-07-25 18:55:00,68.5,59.2,30.07,East,85,0.0,3.0,72,0.00,,,0.02,28.0,meteohub,2013-07-25 22:55:00,
2013-07-25 19:00:00,68.5,59.5,30.07,East,95,0.0,3.0,73,0.00,,,0.02,25.0,meteohub,2013-07-25 23:00:00,
2013-07-25 19:05:00,68.4,59.7,30.07,East,95,0.0,3.0,74,0.00,,,0.02,26.0,meteohub,2013-07-25 23:05:00,
2013-07-25 19:10:00,68.2,59.9,30.07,East,95,0.0,1.0,75,0.00,,,0.02,25.0,meteohub,2013-07-25 23:10:00,
2013-07-25 19:16:00,67.8,59.9,30.08,East,95,0.0,1.0,76,0.00,,,0.02,28.0,meteohub,2013-07-25 23:16:00,
2013-07-25 19:21:00,67.6,60.3,30.08,East,95,0.0,1.0,77,0.00,,,0.02,33.0,meteohub,2013-07-25 23:21:00,
2013-07-25 19:26:00,67.5,60.4,30.08,East,95,0.0,1.0,78,0.00,,,0.02,30.0,meteohub,2013-07-25 23:26:00,
2013-07-25 19:32:00,67.3,60.6,30.08,East,95,0.0,0.0,79,0.00,,,0.02,32.0,meteohub,2013-07-25 23:32:00,
2013-07-25 19:37:00,66.9,60.3,30.08,East,95,0.0,0.0,79,0.00,,,0.02,33.0,meteohub,2013-07-25 23:37:00,
2013-07-25 19:42:00,66.7,60.1,30.09,East,95,0.0,0.0,79,0.00,,,0.02,37.0,meteohub,2013-07-25 23:42:00,
2013-07-25 19:47:00,66.6,59.9,30.08,East,95,0.0,0.0,79,0.00,,,0.02,37.0,meteohub,2013-07-25 23:47:00,
2013-07-25 19:52:00,66.4,59.7,30.08,East,95,0.0,0.0,79,0.00,,,0.02,26.0,meteohub,2013-07-25 23:52:00,
2013-07-25 19:58:00,66.2,60.3,30.08,East,95,0.0,0.0,81,0.00,,,0.02,21.0,meteohub,2013-07-25 23:58:00,
2013-07-25 20:03:00,66.0,60.1,30.08,East,95,0.0,0.0,81,0.00,,,0.02,19.0,meteohub,2013-07-26 00:03:00,
2013-07-25 20:08:00,65.8,59.5,30.08,East,95,0.0,0.0,80,0.00,,,0.02,16.0,meteohub,2013-07-26 00:08:00,
2013-07-25 20:13:00,65.7,59.7,30.09,East,95,0.0,0.0,81,0.00,,,0.02,11.0,meteohub,2013-07-26 00:13:00,
2013-07-25 20:18:00,65.3,59.4,30.09,East,95,0.0,0.0,81,0.00,,,0.02,9.0,meteohub,2013-07-26 00:18:00,
2013-07-25 20:23:00,65.1,59.5,30.08,East,95,0.0,0.0,82,0.00,,,0.02,9.0,meteohub,2013-07-26 00:23:00,
2013-07-25 20:28:00,64.9,59.4,30.08,East,95,0.0,0.0,82,0.00,,,0.02,9.0,meteohub,2013-07-26 00:28:00,
2013-07-25 20:33:00,64.9,59.0,30.08,East,95,0.0,0.0,81,0.00,,,0.02,5.0,meteohub,2013-07-26 00:33:00,
2013-07-25 20:39:00,64.8,58.8,30.08,East,95,0.0,0.0,81,0.00,,,0.02,0.0,meteohub,2013-07-26 00:39:00,
2013-07-25 20:44:00,64.6,59.0,30.08,East,95,0.0,0.0,82,0.00,,,0.02,0.0,meteohub,2013-07-26 00:44:00,
2013-07-25 20:49:00,64.2,58.3,30.08,East,95,0.0,0.0,81,0.00,,,0.02,0.0,meteohub,2013-07-26 00:49:00,
2013-07-25 20:54:00,64.2,59.0,30.09,East,95,0.0,0.0,83,0.00,,,0.02,0.0,meteohub,2013-07-26 00:54:00,
2013-07-25 20:57:00,64.0,58.5,30.09,East,95,0.0,0.0,82,0.00,,,0.02,0.0,meteohub,2013-07-26 00:57:00,
2013-07-25 21:02:00,64.0,59.2,30.09,East,95,0.0,0.0,84,0.00,,,0.02,0.0,meteohub,2013-07-26 01:02:00,
2013-07-25 21:07:00,63.9,59.0,30.08,East,95,0.0,0.0,84,0.00,,,0.02,0.0,meteohub,2013-07-26 01:07:00,
2013-07-25 21:13:00,63.9,59.2,30.08,East,95,0.0,0.0,85,0.00,,,0.02,0.0,meteohub,2013-07-26 01:13:00,
2013-07-25 21:18:00,63.9,59.0,30.08,East,95,0.0,0.0,84,0.00,,,0.02,0.0,meteohub,2013-07-26 01:18:00,
2013-07-25 21:23:00,63.7,58.5,30.08,East,95,0.0,0.0,83,0.00,,,0.02,0.0,meteohub,2013-07-26 01:23:00,
2013-07-25 21:28:00,63.7,58.5,30.09,East,95,0.0,0.0,83,0.00,,,0.02,0.0,meteohub,2013-07-26 01:28:00,
2013-07-25 21:34:00,63.7,58.1,30.09,East,95,0.0,0.0,82,0.00,,,0.02,0.0,meteohub,2013-07-26 01:34:00,
2013-07-25 21:39:00,63.5,57.6,30.09,East,95,0.0,0.0,81,0.00,,,0.02,0.0,meteohub,2013-07-26 01:39:00,
2013-07-25 21:44:00,63.3,58.1,30.09,East,95,0.0,0.0,83,0.00,,,0.02,0.0,meteohub,2013-07-26 01:44:00,
2013-07-25 21:49:00,63.3,58.1,30.09,East,95,0.0,0.0,83,0.00,,,0.02,0.0,meteohub,2013-07-26 01:49:00,
2013-07-25 21:55:00,63.3,58.1,30.09,East,95,0.0,0.0,83,0.00,,,0.02,0.0,meteohub,2013-07-26 01:55:00,
2013-07-25 22:00:00,63.3,57.7,30.09,East,95,0.0,0.0,82,0.00,,,0.02,0.0,meteohub,2013-07-26 02:00:00,
2013-07-25 22:05:00,63.3,57.4,30.09,East,95,0.0,0.0,81,0.00,,,0.03,0.0,meteohub,2013-07-26 02:05:00,
2013-07-25 22:10:00,63.1,57.2,30.09,East,95,0.0,0.0,81,0.01,,,0.03,0.0,meteohub,2013-07-26 02:10:00,
2013-07-25 22:15:00,63.1,57.2,30.09,East,95,0.0,0.0,81,0.01,,,0.03,0.0,meteohub,2013-07-26 02:15:00,
2013-07-25 22:20:00,63.3,57.0,30.08,East,95,0.0,1.0,80,0.01,,,0.03,0.0,meteohub,2013-07-26 02:20:00,
2013-07-25 22:26:00,63.3,57.0,30.08,East,95,0.0,1.0,80,0.01,,,0.03,0.0,meteohub,2013-07-26 02:26:00,
2013-07-25 22:31:00,63.7,56.7,30.08,East,97,0.0,1.0,78,0.01,,,0.03,0.0,meteohub,2013-07-26 02:31:00,
2013-07-25 22:36:00,63.9,56.8,30.09,SSE,162,0.0,2.0,78,0.01,,,0.03,0.0,meteohub,2013-07-26 02:36:00,
2013-07-25 22:41:00,64.2,57.2,30.08,SSE,157,0.0,2.0,78,0.01,,,0.03,0.0,meteohub,2013-07-26 02:41:00,
2013-07-25 22:46:00,64.2,57.2,30.08,East,84,0.0,2.0,78,0.01,,,0.03,0.0,meteohub,2013-07-26 02:46:00,
2013-07-25 22:52:00,64.2,57.2,30.08,East,85,0.0,2.0,78,0.01,,,0.03,0.0,meteohub,2013-07-26 02:52:00,
2013-07-25 22:57:00,64.4,58.1,30.08,East,83,0.0,2.0,80,0.01,,,0.03,0.0,meteohub,2013-07-26 02:57:00,
2013-07-25 23:02:00,64.2,57.6,30.08,East,83,0.0,2.0,79,0.01,,,0.03,0.0,meteohub,2013-07-26 03:02:00,
2013-07-25 23:07:00,64.2,57.9,30.08,East,84,0.0,2.0,80,0.00,,,0.03,0.0,meteohub,2013-07-26 03:07:00,
2013-07-25 23:13:00,64.2,57.9,30.08,East,84,0.0,1.0,80,0.00,,,0.03,0.0,meteohub,2013-07-26 03:13:00,
2013-07-25 23:18:00,64.2,58.3,30.08,East,84,0.0,1.0,81,0.00,,,0.03,0.0,meteohub,2013-07-26 03:18:00,
2013-07-25 23:23:00,64.0,57.7,30.08,East,84,0.0,0.0,80,0.00,,,0.03,0.0,meteohub,2013-07-26 03:23:00,
2013-07-25 23:28:00,64.0,58.1,30.08,East,84,0.0,0.0,81,0.00,,,0.03,0.0,meteohub,2013-07-26 03:28:00,
2013-07-25 23:33:00,64.0,58.1,30.07,East,84,0.0,0.0,81,0.00,,,0.03,0.0,meteohub,2013-07-26 03:33:00,
2013-07-25 23:38:00,64.0,57.7,30.07,East,84,0.0,0.0,80,0.00,,,0.03,0.0,meteohub,2013-07-26 03:38:00,
2013-07-25 23:43:00,63.9,57.6,30.06,East,84,0.0,1.0,80,0.00,,,0.03,0.0,meteohub,2013-07-26 03:43:00,
2013-07-25 23:48:00,63.7,57.0,30.07,East,84,0.0,1.0,79,0.00,,,0.03,0.0,meteohub,2013-07-26 03:48:00,
2013-07-25 23:54:00,63.7,57.7,30.07,East,84,0.0,1.0,81,0.00,,,0.03,0.0,meteohub,2013-07-26 03:54:00,
2013-07-25 23:59:00,63.7,57.7,30.07,East,84,0.0,0.0,81,0.00,,,0.03,0.0,meteohub,2013-07-26 03:59:00,